| time (UTC) | temp C | wind direction | speed KPH | gust KPH | rain 1hr cm | rain 24hr cm | rain mn cm | humidity % | barometer mb |
| 20260906200012 | 26 | 0.0 | 0.0 | 0.00 | 0.05 | 0.03 | 74 | 1014.2 | |
| 20260906194510 | 26 | 0.0 | 0.0 | 0.00 | 0.05 | 0.03 | 74 | 1014.2 | |
| 20260906193009 | 26 | 0.0 | 0.0 | 0.00 | 0.05 | 0.03 | 75 | 1014.2 | |
| 20260906191508 | 26 | 0.0 | 0.0 | 0.00 | 0.05 | 0.03 | 78 | 1014.4 | |
| 20260906190005 | 26 | 0.0 | 0.0 | 0.00 | 0.05 | 0.03 | 78 | 1014.6 | |
| 20260906184503 | 26 | 0.0 | 0.0 | 0.00 | 0.05 | 0.03 | 79 | 1014.5 | |
| 20260906183005 | 25 | 0.0 | 0.0 | 0.00 | 0.05 | 0.03 | 79 | 1014.7 | |
| 20260906181612 | 25 | 0.0 | 0.0 | 0.00 | 0.05 | 0.03 | 79 | 1014.9 | |
| 20260906180115 | 25 | 0.0 | 0.0 | 0.00 | 0.05 | 0.03 | 82 | 1015.1 | |
| 20260906174556 | 24 | 0.0 | 0.0 | 0.00 | 0.05 | 0.03 | 84 | 1015.2 | |
| 20260906173049 | 23 | 0.0 | 0.0 | 0.00 | 0.05 | 0.03 | 86 | 1015.8 | |
| 20260906171545 | 22 | 0.0 | 0.0 | 0.00 | 0.05 | 0.03 | 91 | 1015.9 | |
| 20260906170042 | 22 | 0.0 | 0.0 | 0.00 | 0.05 | 0.03 | 95 | 1015.8 | |
| 20260906164537 | 21 | 0.0 | 0.0 | 0.00 | 0.08 | 0.03 | 98 | 1016.4 | |
| 20260906163037 | 20 | 0.0 | 0.0 | 0.00 | 0.08 | 0.03 | 99 | 1016.5 | |
| 20260906161534 | 20 | 0.0 | 0.0 | 0.00 | 0.08 | 0.03 | 99 | 1016.6 | |
| 20260906160031 | 19 | 0.0 | 0.0 | 0.00 | 0.08 | 0.03 | 98 | 1016.4 | |
| 20260906154531 | 18 | 0.0 | 0.0 | 0.00 | 0.08 | 0.03 | 98 | 1016.6 | |
| 20260906153028 | 18 | 0.0 | 0.0 | 0.00 | 0.08 | 0.03 | 98 | 1016.5 | |
| 20260906151533 | 18 | 0.0 | 0.0 | 0.00 | 0.08 | 0.03 | 98 | 1016.5 | |
| 20260906150028 | 18 | 0.0 | 0.0 | 0.00 | 0.08 | 0.03 | 98 | 1016.7 | |
| 20260906144528 | 18 | 0.0 | 0.0 | 0.00 | 0.08 | 0.03 | 98 | 1016.6 | |
| 20260906143027 | 18 | 0.0 | 0.0 | 0.00 | 0.08 | 0.03 | 98 | 1016.5 | |
| 20260906141528 | 18 | 0.0 | 0.0 | 0.00 | 0.08 | 0.03 | 98 | 1016.4 | |
| 20260906140036 | 18 | 0.0 | 0.0 | 0.03 | 0.08 | 0.03 | 98 | 1015.3 | |
| 20260906134526 | 18 | 0.0 | 0.0 | 0.03 | 0.08 | 0.03 | 98 | 1015.3 | |
| 20260906133025 | 18 | 0.0 | 0.0 | 0.03 | 0.08 | 0.03 | 98 | 1015.8 | |
| 20260906131524 | 18 | 0.0 | 0.0 | 0.03 | 0.08 | 0.03 | 98 | 1016.3 | |
| 20260906130028 | 18 | 0.0 | 0.0 | 0.00 | 0.05 | 0.00 | 98 | 1015.2 | |
| 20260906124523 | 17 | 0.0 | 0.0 | 0.00 | 0.05 | 0.00 | 98 | 1016.2 | |
| 20260906123032 | 17 | 0.0 | 0.0 | 0.00 | 0.05 | 0.00 | 98 | 1016.0 | |
| 20260906121535 | 17 | 0.0 | 0.0 | 0.00 | 0.05 | 0.00 | 98 | 1015.7 | |
| 20260906120022 | 17 | 0.0 | 0.0 | 0.00 | 0.05 | 0.00 | 98 | 1016.3 | |
| 20260906114529 | 17 | 0.0 | 0.0 | 0.00 | 0.05 | 0.00 | 98 | 1016.6 | |
| 20260906113039 | 17 | 0.0 | 0.0 | 0.00 | 0.05 | 0.00 | 98 | 1017.0 | |
| 20260906111523 | 17 | 0.0 | 0.0 | 0.00 | 0.05 | 0.00 | 98 | 1016.6 | |
| 20260906110020 | 17 | 0.0 | 0.0 | 0.00 | 0.05 | 0.00 | 98 | 1016.2 | |
| 20260906104527 | 17 | 0.0 | 0.0 | 0.00 | 0.05 | 0.00 | 98 | 1016.4 | |
| 20260906103018 | 17 | 0.0 | 0.0 | 0.00 | 0.05 | 0.00 | 98 | 1015.2 | |
| 20260906101519 | 17 | 0.0 | 0.0 | 0.00 | 0.05 | 0.00 | 98 | 1015.1 | |
| 20260906100020 | 17 | 0.0 | 0.0 | 0.00 | 0.05 | 0.00 | 97 | 1015.1 | |
| 20260906094518 | 17 | 0.0 | 0.0 | 0.00 | 0.05 | 0.00 | 97 | 1015.1 | |
| 20260906093018 | 17 | 0.0 | 0.0 | 0.00 | 0.05 | 0.00 | 97 | 1014.9 | |
| 20260906091529 | 17 | 0.0 | 0.0 | 0.00 | 0.05 | 0.00 | 97 | 1014.8 | |
| 20260906090017 | 17 | 0.0 | 0.0 | 0.00 | 0.05 | 0.00 | 97 | 1015.5 | |
| 20260906084517 | 17 | 0.0 | 0.0 | 0.00 | 0.05 | 0.00 | 97 | 1015.5 | |
| 20260906083016 | 17 | 0.0 | 0.0 | 0.00 | 0.05 | 0.00 | 97 | 1014.7 | |
| 20260906081520 | 17 | 0.0 | 0.0 | 0.00 | 0.05 | 0.00 | 97 | 1015.0 | |
| 20260906080014 | 17 | 0.0 | 0.0 | 0.00 | 0.05 | 0.00 | 97 | 1015.4 | |
| 20260906074519 | 17 | 0.0 | 0.0 | 0.00 | 0.08 | 0.00 | 97 | 1015.5 | |
| 20260906073011 | 17 | 0.0 | 0.0 | 0.00 | 0.08 | 0.00 | 96 | 1015.7 | |
| 20260906071511 | 17 | 0.0 | 0.0 | 0.00 | 0.08 | 0.00 | 96 | 1015.8 | |
| 20260906070009 | 17 | 0.0 | 0.0 | 0.00 | 0.08 | 0.00 | 96 | 1015.8 | |
| 20260906064508 | 17 | 0.0 | 0.0 | 0.00 | 0.08 | 0.00 | 96 | 1015.6 | |
| 20260906063008 | 17 | 0.0 | 0.0 | 0.00 | 0.08 | 0.00 | 96 | 1015.5 | |
| 20260906061507 | 17 | 0.0 | 0.0 | 0.00 | 0.08 | 0.00 | 96 | 1015.9 | |
| 20260906060015 | 17 | 0.0 | 0.0 | 0.00 | 0.08 | 0.00 | 96 | 1015.9 | |
| 20260906054505 | 17 | 0.0 | 0.0 | 0.00 | 0.08 | 0.00 | 96 | 1015.6 | |
| 20260906053010 | 17 | 0.0 | 0.0 | 0.00 | 0.08 | 0.00 | 95 | 1016.1 | |
| 20260906051505 | 18 | 0.0 | 0.0 | 0.00 | 0.08 | 0.00 | 95 | 1015.9 | |
| 20260906050004 | 18 | 0.0 | 0.0 | 0.00 | 0.08 | 0.00 | 95 | 1016.0 | |
| 20260906044559 | 18 | 0.0 | 0.0 | 0.00 | 0.08 | 0.08 | 95 | 1015.9 | |
| 20260906043058 | 18 | 0.0 | 0.0 | 0.00 | 0.08 | 0.08 | 94 | 1016.2 | |
| 20260906041559 | 18 | 0.0 | 0.0 | 0.00 | 0.08 | 0.08 | 94 | 1016.1 | |
| 20260906040058 | 18 | 0.0 | 0.0 | 0.00 | 0.08 | 0.08 | 94 | 1015.9 | |
| 20260906034558 | 18 | 0.0 | 0.0 | 0.00 | 0.08 | 0.08 | 93 | 1015.9 | |
| 20260906033057 | 18 | 0.0 | 0.0 | 0.00 | 0.08 | 0.08 | 93 | 1015.6 | |
| 20260906031603 | 19 | 0.0 | 0.0 | 0.00 | 0.08 | 0.08 | 93 | 1015.6 | |
| 20260906030057 | 19 | 0.0 | 0.0 | 0.00 | 0.08 | 0.08 | 92 | 1015.5 | |
| 20260906024557 | 19 | 0.0 | 0.0 | 0.00 | 0.10 | 0.08 | 92 | 1015.5 | |
| 20260906023059 | 20 | 0.0 | 0.0 | 0.00 | 0.10 | 0.08 | 91 | 1015.4 | |
| 20260906021555 | 20 | 0.0 | 0.0 | 0.00 | 0.10 | 0.08 | 91 | 1015.4 | |
| 20260906014555 | 20 | 0.0 | 0.0 | 0.00 | 0.10 | 0.08 | 90 | 1015.3 | |
| 20260906013054 | 20 | 0.0 | 0.0 | 0.00 | 0.10 | 0.08 | 90 | 1015.4 | |
| 20260906011554 | 20 | 0.0 | 0.0 | 0.00 | 0.10 | 0.08 | 90 | 1015.2 | |
| 20260906010054 | 20 | 0.0 | 0.0 | 0.00 | 0.10 | 0.08 | 90 | 1014.9 | |
| 20260906004553 | 20 | 0.0 | 0.0 | 0.00 | 0.10 | 0.08 | 90 | 1014.2 | |
| 20260906003053 | 21 | 0.0 | 0.0 | 0.00 | 0.10 | 0.08 | 89 | 1013.9 | |
| 20260906001552 | 21 | 0.0 | 0.0 | 0.00 | 0.10 | 0.08 | 88 | 1013.9 | |
| 20260906000053 | 21 | 0.0 | 0.0 | 0.00 | 0.10 | 0.08 | 87 | 1013.6 | |
| 20260905234553 | 21 | 0.0 | 0.0 | 0.03 | 0.10 | 0.08 | 85 | 1013.4 | |
| 20260905233052 | 22 | 0.0 | 0.0 | 0.03 | 0.10 | 0.08 | 84 | 1013.1 | |
| 20260905231552 | 22 | 0.0 | 0.0 | 0.03 | 0.10 | 0.08 | 83 | 1013.0 | |
| 20260905230054 | 22 | 0.0 | 0.0 | 0.03 | 0.10 | 0.08 | 82 | 1012.9 | |
| 20260905224603 | 22 | 0.0 | 0.0 | 0.03 | 0.10 | 0.08 | 83 | 1013.2 | |
| 20260905223051 | 22 | 0.0 | 0.0 | 0.00 | 0.08 | 0.05 | 82 | 1013.2 | |
| 20260905221557 | 22 | 0.0 | 0.0 | 0.00 | 0.08 | 0.05 | 83 | 1013.4 | |
| 20260905220058 | 22 | 0.0 | 0.0 | 0.00 | 0.08 | 0.05 | 83 | 1013.6 | |
| 20260905214545 | 21 | 0.0 | 0.0 | 0.00 | 0.08 | 0.05 | 86 | 1013.9 | |
| 20260905213043 | 21 | 0.0 | 0.0 | 0.00 | 0.08 | 0.05 | 88 | 1014.0 | |
| 20260905211543 | 20 | 0.0 | 0.0 | 0.00 | 0.08 | 0.05 | 88 | 1014.1 | |
| 20260905210042 | 20 | 0.0 | 0.0 | 0.00 | 0.08 | 0.05 | 89 | 1015.0 | |
| 20260905204542 | 20 | 0.0 | 0.0 | 0.00 | 0.08 | 0.05 | 88 | 1015.1 | |
| 20260905203056 | 20 | 0.0 | 0.0 | 0.00 | 0.08 | 0.05 | 88 | 1015.6 | |
| 20260905201544 | 20 | 0.0 | 0.0 | 0.00 | 0.08 | 0.05 | 89 | 1016.2 |